GEFSNE_prec_meanprecacc_138.txt.gz
Total_Precipitation_Accumulation
0.83 0.94 1.03 1.05 1.10 1.19 1.28 1.34 1.39 1.35 1.33 1.26 1.05 0.98 0.95 0.93 0.97 0.91 0.95 0.76 0.51 0.42 0.41 0.43 0.44 0.48 0.60 0.78 0.95 1.11 1.33 1.49 1.60 1.70 1.78 1.90 2.01 2.13
0.93 1.05 1.08 1.06 1.07 1.15 1.29 1.45 1.55 1.54 1.39 1.16 1.04 1.07 1.10 0.99 0.94 0.80 0.76 0.73 0.55 0.43 0.39 0.39 0.39 0.41 0.46 0.60 0.75 0.88 1.04 1.16 1.29 1.41 1.48 1.53 1.59 1.73
0.85 0.96 1.04 1.06 1.10 1.13 1.23 1.31 1.46 1.59 1.46 1.24 1.19 1.24 1.29 1.25 1.09 0.91 0.76 0.70 0.59 0.47 0.38 0.37 0.37 0.42 0.48 0.55 0.66 0.77 0.85 0.92 1.04 1.17 1.29 1.38 1.44 1.49
0.89 0.90 0.88 0.93 1.04 1.05 1.12 1.15 1.26 1.46 1.42 1.32 1.35 1.38 1.41 1.35 1.26 1.08 0.89 0.78 0.72 0.56 0.42 0.37 0.36 0.38 0.42 0.42 0.50 0.65 0.77 0.84 0.87 0.90 0.97 1.09 1.23 1.34
0.81 0.81 0.77 0.80 0.85 0.93 1.03 1.01 1.03 1.15 1.29 1.35 1.44 1.52 1.59 1.48 1.31 1.17 1.04 0.95 0.75 0.64 0.53 0.43 0.40 0.38 0.39 0.39 0.43 0.51 0.64 0.77 0.85 0.90 0.92 0.98 1.04 1.13
0.71 0.68 0.69 0.72 0.75 0.82 0.91 0.95 0.97 1.06 1.19 1.27 1.42 1.62 1.64 1.68 1.56 1.34 1.24 1.17 0.92 0.67 0.62 0.55 0.49 0.44 0.40 0.36 0.37 0.44 0.54 0.69 0.85 0.93 0.99 1.08 1.14 1.15
0.70 0.64 0.60 0.58 0.61 0.68 0.69 0.76 0.86 0.95 0.98 1.07 1.21 1.44 1.57 1.69 1.65 1.45 1.30 1.31 1.17 0.87 0.73 0.67 0.64 0.57 0.51 0.45 0.37 0.36 0.44 0.58 0.78 0.93 1.02 1.12 1.24 1.30
0.65 0.63 0.56 0.49 0.50 0.50 0.47 0.53 0.62 0.69 0.79 0.94 1.00 1.20 1.41 1.51 1.64 1.71 1.57 1.42 1.35 1.19 1.10 1.00 0.87 0.81 0.68 0.54 0.45 0.35 0.34 0.44 0.57 0.72 0.86 1.00 1.13 1.29
0.61 0.63 0.50 0.42 0.49 0.50 0.47 0.43 0.44 0.46 0.55 0.74 0.87 0.95 1.19 1.41 1.60 1.75 1.75 1.68 1.56 1.47 1.42 1.35 1.13 0.96 0.81 0.69 0.60 0.46 0.38 0.34 0.38 0.47 0.57 0.72 0.84 0.97
0.55 0.61 0.63 0.59 0.58 0.61 0.61 0.55 0.48 0.46 0.48 0.54 0.61 0.76 1.03 1.41 1.63 1.68 1.80 1.83 1.77 1.69 1.63 1.59 1.42 1.23 1.06 0.93 0.83 0.63 0.51 0.43 0.39 0.39 0.42 0.48 0.60 0.72
0.58 0.62 0.66 0.64 0.62 0.53 0.54 0.53 0.52 0.52 0.47 0.49 0.52 0.62 0.79 1.06 1.45 1.60 1.64 1.59 1.54 1.37 1.26 1.30 1.32 1.32 1.28 1.17 1.02 0.88 0.72 0.59 0.52 0.51 0.49 0.49 0.55 0.65
0.72 0.72 0.65 0.59 0.55 0.49 0.51 0.57 0.53 0.50 0.55 0.56 0.56 0.55 0.58 0.73 1.03 1.27 1.33 1.32 1.22 1.20 1.00 0.96 0.98 1.06 1.16 1.09 0.98 0.93 0.87 0.85 0.76 0.64 0.58 0.56 0.64 0.63
0.80 0.81 0.75 0.65 0.53 0.50 0.52 0.58 0.58 0.58 0.69 0.72 0.70 0.68 0.70 0.73 0.82 1.00 1.19 1.25 1.16 0.98 0.89 0.90 0.88 0.89 0.89 0.86 0.85 0.82 0.84 0.89 0.87 0.82 0.77 0.75 0.78 0.76
0.85 0.85 0.85 0.68 0.53 0.51 0.49 0.48 0.51 0.51 0.59 0.68 0.67 0.64 0.65 0.66 0.70 0.84 1.02 1.14 1.20 1.05 0.95 0.99 0.97 0.90 0.84 0.75 0.71 0.68 0.71 0.82 0.95 1.05 1.01 0.99 0.97 1.03
0.82 0.83 0.78 0.67 0.55 0.49 0.52 0.52 0.49 0.49 0.56 0.63 0.63 0.55 0.52 0.57 0.69 0.84 0.99 1.11 1.15 1.09 0.97 0.96 0.97 0.94 0.90 0.78 0.66 0.62 0.66 0.72 0.82 1.00 1.18 1.23 1.18 1.17
0.87 0.84 0.76 0.72 0.63 0.58 0.61 0.56 0.51 0.57 0.62 0.63 0.65 0.67 0.66 0.70 0.75 0.81 0.91 1.01 1.08 1.02 0.95 0.95 1.00 1.04 0.96 0.80 0.76 0.69 0.67 0.70 0.69 0.79 1.04 1.29 1.47 1.55
1.12 1.10 1.03 0.95 0.84 0.77 0.77 0.77 0.77 0.80 0.76 0.75 0.80 0.86 0.85 0.79 0.77 0.81 0.94 0.98 0.94 0.88 0.89 0.94 1.01 1.11 1.09 0.93 0.83 0.75 0.73 0.69 0.62 0.66 0.82 1.00 1.22 1.45
1.05 1.03 1.01 0.96 0.89 0.89 0.92 0.93 0.91 0.91 0.89 0.90 0.92 0.96 0.98 0.91 0.83 0.83 0.93 0.98 0.92 0.86 0.84 0.87 1.02 1.18 1.19 1.06 0.76 0.65 0.65 0.64 0.65 0.75 0.83 0.82 0.88 0.99
1.03 1.02 1.00 1.00 0.96 0.95 0.98 0.98 0.95 0.96 1.02 1.04 1.06 1.07 1.12 1.11 1.07 1.00 0.98 1.01 0.99 0.97 0.91 0.91 0.98 1.02 0.94 0.80 0.70 0.54 0.55 0.59 0.69 0.79 0.85 0.78 0.70 0.75
1.01 1.04 1.03 1.03 1.01 0.98 0.96 0.98 1.00 1.04 1.05 1.04 1.08 1.10 1.16 1.16 1.17 1.09 1.02 0.99 1.01 1.03 1.02 0.94 0.87 0.83 0.79 0.71 0.68 0.65 0.57 0.63 0.71 0.74 0.78 0.80 0.75 0.71
1.02 1.01 0.98 0.93 0.92 0.94 0.94 0.93 0.93 0.94 0.96 1.03 1.03 1.03 1.08 1.07 1.03 0.99 0.99 0.98 0.98 1.04 0.96 0.79 0.75 0.84 0.99 1.10 0.92 0.68 0.64 0.65 0.76 0.84 0.89 0.94 0.89 0.85
0.99 0.93 0.92 0.87 0.87 0.90 0.92 0.90 0.89 0.91 0.95 1.04 1.04 1.02 1.03 1.00 0.94 0.93 0.97 0.99 0.96 0.95 0.95 0.92 1.02 1.11 1.13 1.07 0.88 0.74 0.76 0.83 0.90 0.95 0.96 0.88 0.80 0.74
0.92 0.89 0.87 0.83 0.81 0.82 0.83 0.84 0.87 0.92 0.96 1.01 1.04 1.06 1.07 1.04 0.97 0.96 0.99 1.03 1.03 1.05 1.17 1.21 1.17 1.12 1.05 1.05 1.02 0.93 0.90 0.98 1.10 1.13 1.05 0.90 0.66 0.51

GEFSNE_prec_meanprecacc_144.txt.gz
Total_Precipitation_Accumulation
0.86 0.98 1.06 1.07 1.13 1.22 1.31 1.37 1.42 1.37 1.33 1.26 1.05 0.99 0.96 0.94 0.98 0.91 0.96 0.77 0.52 0.43 0.42 0.43 0.44 0.49 0.60 0.78 0.95 1.11 1.33 1.49 1.60 1.70 1.78 1.90 2.02 2.14
0.98 1.11 1.12 1.09 1.11 1.19 1.32 1.48 1.58 1.56 1.40 1.16 1.05 1.08 1.10 1.00 0.94 0.81 0.77 0.74 0.55 0.43 0.39 0.39 0.39 0.42 0.46 0.60 0.75 0.88 1.04 1.16 1.29 1.41 1.48 1.53 1.59 1.73
0.91 1.02 1.08 1.09 1.12 1.16 1.26 1.35 1.50 1.62 1.48 1.25 1.20 1.26 1.31 1.27 1.10 0.91 0.77 0.71 0.60 0.48 0.39 0.37 0.38 0.42 0.48 0.55 0.66 0.77 0.85 0.92 1.04 1.17 1.29 1.38 1.44 1.49
0.94 0.95 0.91 0.96 1.07 1.08 1.14 1.17 1.28 1.49 1.45 1.34 1.36 1.40 1.43 1.36 1.27 1.09 0.89 0.79 0.73 0.58 0.43 0.37 0.37 0.38 0.42 0.42 0.50 0.65 0.77 0.84 0.87 0.90 0.97 1.09 1.23 1.34
0.86 0.85 0.81 0.82 0.87 0.95 1.05 1.02 1.05 1.17 1.31 1.37 1.45 1.53 1.61 1.50 1.32 1.19 1.06 0.96 0.76 0.65 0.54 0.44 0.41 0.39 0.39 0.39 0.43 0.51 0.64 0.77 0.85 0.90 0.92 0.98 1.04 1.13
0.77 0.72 0.72 0.76 0.78 0.84 0.93 0.96 0.98 1.07 1.20 1.28 1.43 1.63 1.66 1.70 1.59 1.37 1.25 1.18 0.93 0.68 0.63 0.56 0.49 0.44 0.40 0.36 0.38 0.44 0.54 0.69 0.85 0.93 0.99 1.08 1.14 1.15
0.78 0.70 0.66 0.64 0.66 0.71 0.71 0.78 0.87 0.97 0.99 1.08 1.22 1.45 1.58 1.70 1.66 1.47 1.32 1.33 1.19 0.89 0.75 0.68 0.65 0.58 0.52 0.45 0.37 0.36 0.45 0.59 0.78 0.94 1.02 1.13 1.25 1.31
0.73 0.70 0.62 0.54 0.55 0.54 0.51 0.56 0.65 0.72 0.81 0.96 1.02 1.21 1.42 1.53 1.66 1.73 1.59 1.44 1.37 1.20 1.12 1.02 0.88 0.81 0.68 0.55 0.46 0.36 0.35 0.45 0.57 0.73 0.87 1.01 1.13 1.29
0.70 0.70 0.55 0.47 0.55 0.55 0.53 0.48 0.48 0.50 0.58 0.77 0.90 0.98 1.21 1.42 1.62 1.78 1.78 1.70 1.58 1.49 1.44 1.37 1.14 0.97 0.82 0.70 0.61 0.47 0.39 0.35 0.39 0.48 0.58 0.73 0.85 0.97
0.64 0.70 0.71 0.66 0.64 0.67 0.67 0.60 0.53 0.50 0.53 0.58 0.65 0.80 1.06 1.44 1.65 1.71 1.82 1.85 1.79 1.71 1.66 1.61 1.43 1.24 1.07 0.94 0.84 0.64 0.52 0.44 0.40 0.40 0.43 0.49 0.61 0.73
0.67 0.70 0.72 0.68 0.66 0.57 0.57 0.56 0.55 0.55 0.50 0.52 0.55 0.64 0.81 1.08 1.48 1.62 1.66 1.62 1.56 1.39 1.28 1.32 1.34 1.33 1.29 1.19 1.04 0.90 0.73 0.60 0.53 0.52 0.50 0.50 0.56 0.66
0.78 0.77 0.70 0.63 0.59 0.53 0.55 0.61 0.57 0.54 0.59 0.60 0.59 0.57 0.60 0.75 1.05 1.29 1.36 1.35 1.25 1.22 1.01 0.98 1.00 1.07 1.18 1.10 1.00 0.94 0.89 0.87 0.78 0.66 0.60 0.57 0.66 0.64
0.87 0.87 0.80 0.70 0.58 0.55 0.56 0.62 0.63 0.63 0.72 0.75 0.73 0.71 0.73 0.76 0.84 1.01 1.20 1.27 1.19 1.00 0.90 0.91 0.90 0.90 0.90 0.87 0.86 0.83 0.86 0.91 0.89 0.85 0.79 0.77 0.80 0.78
0.97 0.96 0.96 0.78 0.61 0.57 0.54 0.53 0.55 0.54 0.61 0.70 0.69 0.66 0.67 0.67 0.71 0.85 1.04 1.16 1.22 1.07 0.97 1.01 1.00 0.92 0.86 0.76 0.72 0.69 0.71 0.83 0.96 1.06 1.03 1.01 0.99 1.05
0.97 0.96 0.89 0.76 0.62 0.54 0.55 0.54 0.51 0.50 0.57 0.64 0.64 0.56 0.53 0.58 0.70 0.85 1.00 1.13 1.17 1.11 1.00 0.99 1.01 0.98 0.93 0.81 0.68 0.64 0.67 0.74 0.83 1.01 1.19 1.24 1.19 1.18
0.96 0.92 0.81 0.76 0.66 0.61 0.62 0.57 0.52 0.58 0.64 0.65 0.67 0.68 0.67 0.71 0.76 0.82 0.92 1.02 1.08 1.03 0.96 0.96 1.03 1.08 1.00 0.84 0.79 0.72 0.69 0.71 0.70 0.80 1.05 1.29 1.48 1.55
1.18 1.14 1.06 0.97 0.86 0.78 0.78 0.79 0.79 0.83 0.79 0.78 0.83 0.89 0.87 0.81 0.79 0.83 0.96 1.00 0.96 0.90 0.90 0.95 1.03 1.14 1.12 0.96 0.86 0.78 0.76 0.71 0.64 0.67 0.82 1.00 1.22 1.46
1.11 1.08 1.06 1.00 0.93 0.92 0.96 0.96 0.94 0.94 0.91 0.92 0.95 0.99 1.00 0.93 0.86 0.86 0.96 1.01 0.95 0.89 0.87 0.90 1.05 1.20 1.22 1.08 0.78 0.66 0.66 0.65 0.65 0.76 0.84 0.83 0.88 0.99
1.10 1.11 1.09 1.08 1.03 1.02 1.03 1.03 0.99 0.99 1.04 1.07 1.08 1.09 1.14 1.14 1.10 1.03 1.01 1.05 1.03 0.99 0.93 0.93 1.00 1.05 0.97 0.81 0.71 0.55 0.56 0.60 0.70 0.80 0.87 0.79 0.71 0.75
1.08 1.12 1.12 1.11 1.10 1.07 1.03 1.05 1.06 1.09 1.10 1.09 1.11 1.14 1.20 1.21 1.22 1.14 1.06 1.02 1.04 1.06 1.05 0.98 0.90 0.86 0.82 0.75 0.70 0.67 0.59 0.65 0.72 0.75 0.80 0.81 0.76 0.72
1.05 1.04 1.01 0.96 0.95 0.97 0.97 0.96 0.96 0.97 1.00 1.06 1.06 1.06 1.12 1.11 1.07 1.03 1.03 1.02 1.02 1.07 1.00 0.82 0.78 0.86 1.02 1.12 0.93 0.69 0.65 0.66 0.78 0.86 0.91 0.96 0.90 0.86
0.99 0.94 0.92 0.88 0.88 0.90 0.92 0.91 0.91 0.93 0.97 1.06 1.07 1.05 1.06 1.04 0.98 0.98 1.02 1.04 1.01 1.00 1.01 0.97 1.07 1.15 1.16 1.10 0.91 0.76 0.77 0.85 0.91 0.97 0.97 0.90 0.82 0.75
0.93 0.89 0.88 0.83 0.81 0.82 0.83 0.85 0.89 0.94 0.97 1.03 1.06 1.08 1.10 1.06 1.00 1.00 1.03 1.08 1.08 1.10 1.23 1.26 1.21 1.17 1.09 1.07 1.03 0.95 0.91 1.00 1.11 1.14 1.06 0.91 0.67 0.52

GEFSNE_prec_meanprecacc_150.txt.gz
Total_Precipitation_Accumulation
0.89 1.00 1.09 1.10 1.16 1.25 1.34 1.39 1.44 1.37 1.33 1.27 1.06 1.00 0.97 0.95 0.98 0.91 0.96 0.77 0.52 0.43 0.42 0.44 0.45 0.49 0.61 0.79 0.96 1.11 1.33 1.49 1.60 1.70 1.78 1.90 2.02 2.15
1.03 1.15 1.15 1.13 1.14 1.22 1.35 1.51 1.60 1.56 1.40 1.17 1.06 1.08 1.11 1.01 0.95 0.81 0.78 0.74 0.55 0.43 0.39 0.40 0.40 0.42 0.47 0.61 0.76 0.89 1.04 1.16 1.29 1.41 1.48 1.53 1.59 1.73
0.95 1.05 1.11 1.13 1.16 1.19 1.28 1.36 1.51 1.63 1.49 1.26 1.21 1.27 1.32 1.27 1.10 0.91 0.77 0.71 0.60 0.49 0.39 0.38 0.38 0.42 0.49 0.56 0.68 0.78 0.85 0.92 1.04 1.17 1.29 1.38 1.44 1.49
0.99 1.00 0.96 1.00 1.10 1.11 1.16 1.19 1.29 1.50 1.46 1.35 1.37 1.41 1.43 1.37 1.28 1.09 0.89 0.79 0.74 0.58 0.43 0.38 0.37 0.39 0.42 0.43 0.51 0.66 0.77 0.84 0.87 0.90 0.97 1.09 1.23 1.34
0.92 0.91 0.86 0.88 0.91 0.99 1.08 1.05 1.07 1.19 1.33 1.38 1.46 1.54 1.61 1.50 1.33 1.19 1.06 0.97 0.77 0.65 0.54 0.45 0.41 0.39 0.39 0.40 0.43 0.52 0.64 0.77 0.86 0.90 0.92 0.98 1.04 1.13
0.83 0.76 0.76 0.79 0.82 0.89 0.99 1.02 1.04 1.11 1.23 1.31 1.45 1.64 1.67 1.71 1.60 1.37 1.25 1.18 0.93 0.68 0.63 0.56 0.50 0.45 0.41 0.37 0.38 0.44 0.54 0.70 0.85 0.94 0.99 1.08 1.14 1.15
0.85 0.77 0.73 0.70 0.73 0.79 0.79 0.84 0.94 1.02 1.04 1.12 1.25 1.47 1.60 1.71 1.67 1.48 1.33 1.34 1.20 0.89 0.75 0.68 0.65 0.58 0.53 0.47 0.39 0.38 0.46 0.60 0.79 0.95 1.03 1.13 1.25 1.31
0.82 0.78 0.69 0.61 0.61 0.60 0.56 0.61 0.69 0.75 0.84 0.98 1.04 1.23 1.43 1.54 1.67 1.74 1.60 1.45 1.38 1.21 1.13 1.02 0.89 0.82 0.70 0.56 0.47 0.37 0.37 0.46 0.59 0.74 0.88 1.02 1.14 1.30
0.81 0.79 0.63 0.54 0.61 0.61 0.58 0.53 0.52 0.55 0.63 0.82 0.93 1.01 1.23 1.44 1.64 1.80 1.80 1.73 1.60 1.51 1.46 1.39 1.16 1.00 0.84 0.71 0.62 0.48 0.39 0.35 0.40 0.49 0.59 0.73 0.86 0.98
0.77 0.82 0.81 0.75 0.74 0.76 0.74 0.65 0.57 0.55 0.60 0.65 0.72 0.87 1.13 1.50 1.70 1.76 1.88 1.90 1.84 1.75 1.70 1.65 1.46 1.26 1.09 0.95 0.85 0.65 0.52 0.44 0.41 0.41 0.44 0.50 0.62 0.74
0.77 0.80 0.82 0.77 0.76 0.67 0.66 0.63 0.61 0.61 0.58 0.59 0.61 0.70 0.87 1.14 1.53 1.67 1.71 1.66 1.60 1.43 1.32 1.36 1.36 1.35 1.30 1.19 1.05 0.91 0.74 0.60 0.54 0.52 0.51 0.51 0.57 0.67
0.85 0.83 0.76 0.69 0.66 0.60 0.61 0.67 0.63 0.60 0.65 0.65 0.62 0.61 0.63 0.79 1.10 1.33 1.39 1.38 1.27 1.24 1.03 0.99 1.01 1.08 1.19 1.10 1.00 0.95 0.89 0.88 0.80 0.68 0.62 0.59 0.68 0.66
0.92 0.92 0.85 0.76 0.64 0.62 0.64 0.69 0.69 0.69 0.77 0.79 0.76 0.73 0.75 0.78 0.86 1.04 1.23 1.29 1.21 1.02 0.92 0.93 0.91 0.92 0.92 0.89 0.87 0.83 0.86 0.91 0.90 0.86 0.81 0.80 0.84 0.82
1.02 1.01 1.01 0.85 0.70 0.66 0.63 0.60 0.62 0.60 0.65 0.73 0.71 0.68 0.68 0.69 0.74 0.88 1.06 1.18 1.24 1.10 1.00 1.04 1.02 0.93 0.88 0.78 0.73 0.70 0.72 0.84 0.97 1.07 1.04 1.03 1.01 1.09
1.01 1.01 0.95 0.82 0.68 0.60 0.61 0.60 0.55 0.54 0.60 0.67 0.67 0.59 0.55 0.61 0.72 0.88 1.02 1.15 1.18 1.13 1.02 1.01 1.02 1.00 0.95 0.83 0.70 0.65 0.68 0.75 0.84 1.02 1.20 1.25 1.20 1.20
0.99 0.95 0.85 0.80 0.70 0.66 0.67 0.62 0.56 0.62 0.68 0.68 0.71 0.71 0.70 0.74 0.79 0.85 0.95 1.04 1.10 1.04 0.98 0.98 1.05 1.10 1.01 0.85 0.81 0.73 0.70 0.72 0.71 0.80 1.05 1.30 1.49 1.56
1.22 1.17 1.09 1.01 0.89 0.82 0.82 0.84 0.84 0.89 0.85 0.84 0.88 0.94 0.92 0.86 0.83 0.87 1.00 1.04 0.99 0.93 0.93 0.98 1.05 1.16 1.14 0.98 0.88 0.79 0.77 0.72 0.65 0.68 0.83 1.01 1.23 1.46
1.14 1.12 1.10 1.04 0.97 0.97 1.02 1.03 1.01 1.02 0.99 1.00 1.01 1.05 1.05 0.98 0.90 0.90 1.00 1.05 0.99 0.92 0.90 0.93 1.08 1.23 1.24 1.11 0.80 0.68 0.68 0.67 0.67 0.77 0.86 0.85 0.89 1.00
1.15 1.15 1.13 1.12 1.07 1.06 1.07 1.07 1.04 1.04 1.09 1.11 1.12 1.13 1.17 1.17 1.13 1.06 1.04 1.08 1.06 1.02 0.97 0.97 1.05 1.10 1.01 0.86 0.74 0.58 0.59 0.63 0.73 0.82 0.89 0.82 0.72 0.77
1.11 1.15 1.13 1.12 1.10 1.08 1.05 1.07 1.08 1.11 1.12 1.11 1.14 1.17 1.23 1.24 1.25 1.17 1.09 1.06 1.07 1.10 1.08 1.01 0.94 0.90 0.87 0.80 0.75 0.72 0.63 0.70 0.76 0.79 0.82 0.84 0.78 0.74
1.06 1.05 1.01 0.96 0.95 0.97 0.97 0.96 0.97 0.98 1.00 1.07 1.07 1.08 1.13 1.12 1.09 1.06 1.06 1.05 1.05 1.10 1.03 0.86 0.81 0.90 1.05 1.16 0.97 0.72 0.68 0.69 0.81 0.90 0.94 0.98 0.92 0.88
0.99 0.94 0.92 0.88 0.88 0.90 0.92 0.91 0.91 0.93 0.98 1.06 1.07 1.05 1.07 1.04 0.99 0.99 1.04 1.06 1.03 1.03 1.05 1.02 1.11 1.18 1.19 1.13 0.94 0.80 0.81 0.88 0.94 0.99 0.98 0.91 0.84 0.77
0.93 0.89 0.88 0.83 0.81 0.82 0.83 0.85 0.89 0.94 0.98 1.03 1.07 1.09 1.11 1.07 1.01 1.01 1.05 1.10 1.10 1.12 1.25 1.29 1.24 1.20 1.12 1.10 1.07 0.99 0.96 1.04 1.14 1.15 1.07 0.92 0.69 0.54

GEFSNE_prec_meanprecacc_156.txt.gz
Total_Precipitation_Accumulation
0.95 1.07 1.15 1.16 1.20 1.27 1.36 1.43 1.47 1.41 1.36 1.29 1.08 1.01 0.98 0.96 0.99 0.92 0.96 0.78 0.52 0.44 0.43 0.44 0.45 0.49 0.61 0.79 0.96 1.12 1.34 1.50 1.61 1.71 1.79 1.91 2.03 2.16
1.10 1.22 1.22 1.17 1.19 1.26 1.38 1.54 1.64 1.62 1.45 1.19 1.08 1.10 1.13 1.02 0.96 0.82 0.79 0.76 0.57 0.45 0.40 0.40 0.40 0.42 0.47 0.61 0.76 0.89 1.04 1.17 1.30 1.42 1.49 1.54 1.60 1.73
1.03 1.12 1.19 1.19 1.21 1.25 1.34 1.43 1.58 1.70 1.55 1.30 1.25 1.29 1.35 1.31 1.13 0.94 0.79 0.73 0.62 0.50 0.40 0.38 0.38 0.43 0.50 0.56 0.68 0.79 0.86 0.93 1.05 1.18 1.29 1.39 1.44 1.50
1.06 1.08 1.03 1.05 1.15 1.16 1.22 1.25 1.35 1.55 1.50 1.41 1.42 1.45 1.47 1.41 1.31 1.12 0.91 0.80 0.75 0.60 0.44 0.39 0.38 0.39 0.42 0.43 0.51 0.66 0.78 0.84 0.88 0.91 0.98 1.09 1.24 1.34
1.01 0.99 0.94 0.96 0.99 1.07 1.15 1.11 1.11 1.23 1.38 1.43 1.51 1.60 1.65 1.54 1.36 1.22 1.09 1.00 0.79 0.67 0.55 0.45 0.42 0.40 0.40 0.40 0.44 0.52 0.65 0.78 0.86 0.91 0.93 0.99 1.05 1.13
0.94 0.86 0.84 0.87 0.91 0.97 1.05 1.08 1.09 1.18 1.31 1.39 1.53 1.73 1.75 1.77 1.65 1.41 1.30 1.23 0.97 0.70 0.66 0.58 0.51 0.46 0.41 0.38 0.39 0.45 0.55 0.70 0.86 0.94 1.00 1.09 1.16 1.16
0.98 0.88 0.81 0.78 0.81 0.87 0.85 0.91 1.00 1.08 1.10 1.19 1.32 1.54 1.66 1.77 1.72 1.52 1.37 1.38 1.24 0.93 0.79 0.71 0.67 0.59 0.54 0.47 0.40 0.39 0.47 0.61 0.80 0.96 1.04 1.15 1.26 1.32
1.02 0.94 0.82 0.71 0.70 0.68 0.64 0.68 0.77 0.82 0.91 1.05 1.11 1.30 1.50 1.60 1.73 1.79 1.65 1.50 1.43 1.26 1.17 1.06 0.92 0.86 0.73 0.58 0.50 0.39 0.38 0.47 0.60 0.75 0.89 1.03 1.15 1.31
0.98 0.97 0.78 0.67 0.73 0.70 0.68 0.63 0.62 0.65 0.72 0.92 1.03 1.10 1.33 1.53 1.72 1.88 1.88 1.81 1.69 1.58 1.53 1.45 1.21 1.03 0.88 0.74 0.65 0.50 0.41 0.37 0.41 0.50 0.59 0.74 0.86 0.98
0.94 0.98 0.96 0.89 0.88 0.89 0.85 0.76 0.67 0.65 0.69 0.73 0.80 0.96 1.23 1.60 1.80 1.84 1.96 1.98 1.91 1.81 1.77 1.72 1.52 1.32 1.15 1.01 0.90 0.68 0.54 0.45 0.42 0.42 0.45 0.51 0.62 0.74
1.00 1.00 1.00 0.94 0.94 0.84 0.80 0.79 0.77 0.77 0.72 0.73 0.74 0.83 0.99 1.24 1.62 1.74 1.78 1.73 1.65 1.47 1.37 1.41 1.41 1.39 1.34 1.22 1.06 0.92 0.75 0.61 0.54 0.53 0.51 0.51 0.57 0.67
1.06 1.02 0.92 0.83 0.78 0.71 0.70 0.77 0.74 0.73 0.79 0.78 0.74 0.71 0.72 0.87 1.16 1.38 1.44 1.44 1.32 1.28 1.07 1.04 1.05 1.12 1.22 1.13 1.02 0.96 0.90 0.88 0.80 0.68 0.62 0.59 0.68 0.66
1.07 1.05 0.96 0.85 0.72 0.68 0.69 0.75 0.77 0.77 0.85 0.87 0.83 0.80 0.81 0.84 0.92 1.09 1.27 1.34 1.26 1.08 0.97 0.97 0.95 0.96 0.96 0.93 0.90 0.86 0.88 0.93 0.91 0.87 0.82 0.81 0.84 0.82
1.10 1.08 1.08 0.92 0.75 0.71 0.68 0.67 0.69 0.66 0.70 0.78 0.76 0.73 0.74 0.75 0.79 0.93 1.12 1.23 1.29 1.14 1.03 1.08 1.06 0.98 0.93 0.83 0.78 0.74 0.76 0.87 1.00 1.10 1.06 1.04 1.02 1.10
1.05 1.06 1.00 0.89 0.74 0.65 0.66 0.65 0.60 0.58 0.65 0.72 0.73 0.66 0.63 0.68 0.79 0.94 1.08 1.20 1.24 1.17 1.05 1.05 1.07 1.04 1.00 0.87 0.73 0.68 0.72 0.78 0.87 1.05 1.22 1.28 1.22 1.22
1.05 1.02 0.92 0.87 0.76 0.71 0.72 0.66 0.61 0.67 0.74 0.76 0.79 0.80 0.78 0.81 0.85 0.91 1.00 1.09 1.15 1.08 1.01 1.01 1.08 1.14 1.05 0.89 0.85 0.76 0.73 0.75 0.73 0.83 1.08 1.33 1.51 1.59
1.29 1.24 1.15 1.06 0.94 0.86 0.85 0.87 0.88 0.93 0.91 0.90 0.94 0.99 0.97 0.91 0.89 0.93 1.05 1.08 1.04 0.97 0.96 1.01 1.07 1.19 1.17 1.02 0.92 0.83 0.82 0.76 0.69 0.73 0.87 1.04 1.26 1.50
1.22 1.18 1.16 1.10 1.02 1.02 1.05 1.07 1.05 1.06 1.03 1.04 1.06 1.09 1.10 1.02 0.94 0.93 1.03 1.08 1.02 0.96 0.93 0.96 1.11 1.26 1.27 1.13 0.83 0.72 0.72 0.72 0.73 0.83 0.92 0.89 0.93 1.03
1.19 1.20 1.18 1.16 1.10 1.08 1.10 1.10 1.07 1.07 1.12 1.13 1.14 1.14 1.19 1.18 1.14 1.08 1.05 1.10 1.08 1.04 0.99 1.00 1.08 1.13 1.05 0.89 0.77 0.61 0.62 0.67 0.77 0.86 0.94 0.86 0.77 0.81
1.15 1.19 1.16 1.14 1.12 1.09 1.06 1.08 1.09 1.12 1.13 1.12 1.15 1.18 1.24 1.25 1.26 1.18 1.10 1.07 1.09 1.12 1.10 1.04 0.98 0.94 0.91 0.84 0.79 0.75 0.66 0.73 0.81 0.83 0.86 0.88 0.83 0.80
1.09 1.07 1.03 0.98 0.97 0.98 0.98 0.97 0.97 0.98 1.01 1.07 1.08 1.08 1.14 1.13 1.09 1.06 1.06 1.06 1.07 1.13 1.05 0.88 0.84 0.93 1.08 1.19 1.00 0.75 0.71 0.73 0.85 0.93 0.97 1.03 0.99 0.95
1.00 0.95 0.93 0.88 0.88 0.90 0.92 0.91 0.91 0.93 0.98 1.06 1.07 1.06 1.07 1.05 1.00 0.99 1.05 1.07 1.05 1.05 1.06 1.03 1.12 1.19 1.21 1.16 0.97 0.82 0.84 0.93 0.97 1.00 1.00 0.93 0.88 0.82
0.93 0.89 0.88 0.83 0.81 0.82 0.83 0.85 0.89 0.94 0.98 1.03 1.07 1.09 1.12 1.08 1.02 1.02 1.05 1.11 1.11 1.14 1.26 1.30 1.25 1.21 1.14 1.13 1.10 1.02 1.00 1.09 1.18 1.18 1.11 0.95 0.71 0.56

GEFSNE_prec_meanprecacc_162.txt.gz
Total_Precipitation_Accumulation
1.01 1.16 1.22 1.20 1.24 1.31 1.40 1.47 1.53 1.47 1.42 1.34 1.10 1.01 0.99 0.97 1.01 0.94 0.97 0.80 0.54 0.45 0.44 0.45 0.46 0.50 0.62 0.79 0.97 1.13 1.34 1.50 1.61 1.71 1.80 1.92 2.05 2.17
1.18 1.31 1.31 1.23 1.25 1.30 1.42 1.58 1.68 1.66 1.49 1.22 1.10 1.11 1.15 1.05 1.01 0.85 0.82 0.81 0.61 0.47 0.42 0.41 0.41 0.43 0.48 0.62 0.76 0.90 1.05 1.17 1.30 1.42 1.49 1.55 1.61 1.75
1.14 1.23 1.31 1.30 1.30 1.31 1.41 1.49 1.65 1.77 1.62 1.33 1.28 1.33 1.40 1.35 1.19 0.98 0.82 0.77 0.67 0.56 0.43 0.40 0.40 0.44 0.50 0.57 0.68 0.79 0.86 0.93 1.06 1.19 1.30 1.40 1.45 1.51
1.18 1.21 1.17 1.19 1.28 1.26 1.33 1.36 1.47 1.67 1.61 1.50 1.49 1.51 1.55 1.49 1.41 1.20 0.94 0.82 0.77 0.66 0.49 0.42 0.40 0.40 0.43 0.44 0.52 0.66 0.78 0.85 0.88 0.92 0.99 1.10 1.24 1.35
1.15 1.14 1.11 1.15 1.17 1.23 1.29 1.22 1.23 1.34 1.50 1.55 1.59 1.67 1.72 1.61 1.46 1.30 1.14 1.05 0.83 0.73 0.61 0.49 0.44 0.42 0.41 0.41 0.44 0.53 0.66 0.79 0.87 0.92 0.94 0.99 1.05 1.14
1.10 1.04 1.03 1.07 1.10 1.15 1.20 1.21 1.20 1.30 1.44 1.50 1.61 1.81 1.83 1.86 1.77 1.53 1.40 1.32 1.06 0.78 0.73 0.63 0.55 0.48 0.43 0.39 0.40 0.46 0.55 0.71 0.87 0.95 1.00 1.09 1.16 1.16
1.18 1.06 0.98 0.96 1.00 1.04 0.99 1.05 1.13 1.21 1.24 1.32 1.43 1.66 1.76 1.88 1.83 1.63 1.48 1.47 1.31 0.99 0.85 0.76 0.71 0.65 0.60 0.54 0.46 0.44 0.50 0.63 0.82 0.97 1.05 1.15 1.27 1.33
1.24 1.17 1.03 0.92 0.90 0.86 0.81 0.84 0.90 0.95 1.04 1.18 1.22 1.40 1.61 1.71 1.84 1.90 1.75 1.61 1.53 1.33 1.25 1.13 0.97 0.93 0.82 0.70 0.62 0.48 0.44 0.52 0.63 0.78 0.91 1.05 1.18 1.33
1.19 1.18 0.98 0.84 0.88 0.82 0.82 0.77 0.74 0.77 0.84 1.02 1.13 1.18 1.41 1.62 1.82 1.98 1.98 1.92 1.78 1.67 1.63 1.55 1.29 1.12 0.96 0.82 0.73 0.55 0.44 0.40 0.43 0.52 0.61 0.76 0.88 1.00
1.12 1.15 1.12 1.03 1.01 1.04 0.99 0.89 0.79 0.77 0.81 0.83 0.88 1.03 1.31 1.67 1.87 1.92 2.05 2.07 1.99 1.89 1.85 1.80 1.58 1.38 1.20 1.06 0.95 0.72 0.57 0.48 0.44 0.43 0.46 0.52 0.64 0.76
1.13 1.15 1.15 1.09 1.10 1.01 0.97 0.94 0.92 0.91 0.84 0.83 0.83 0.91 1.06 1.31 1.67 1.80 1.85 1.80 1.72 1.53 1.43 1.47 1.44 1.42 1.37 1.25 1.10 0.95 0.78 0.64 0.57 0.55 0.53 0.53 0.59 0.69
1.16 1.14 1.06 0.95 0.90 0.84 0.85 0.94 0.90 0.88 0.94 0.90 0.84 0.78 0.77 0.91 1.20 1.42 1.50 1.50 1.38 1.33 1.11 1.08 1.09 1.16 1.27 1.16 1.05 0.99 0.93 0.91 0.82 0.70 0.63 0.60 0.69 0.67
1.15 1.14 1.05 0.95 0.81 0.78 0.79 0.85 0.87 0.86 0.94 0.96 0.91 0.88 0.88 0.90 0.97 1.13 1.32 1.40 1.32 1.14 1.02 1.03 1.01 1.01 1.02 0.97 0.93 0.89 0.91 0.97 0.95 0.90 0.84 0.83 0.86 0.84
1.18 1.16 1.15 0.99 0.82 0.77 0.73 0.72 0.75 0.72 0.75 0.85 0.83 0.79 0.79 0.80 0.84 0.98 1.17 1.30 1.37 1.22 1.10 1.14 1.12 1.03 0.98 0.87 0.81 0.76 0.78 0.90 1.04 1.14 1.10 1.09 1.07 1.14
1.09 1.11 1.05 0.93 0.78 0.69 0.71 0.70 0.65 0.63 0.71 0.79 0.80 0.72 0.68 0.72 0.83 0.98 1.12 1.25 1.30 1.24 1.11 1.11 1.12 1.09 1.05 0.92 0.77 0.71 0.74 0.80 0.89 1.08 1.25 1.32 1.28 1.27
1.09 1.06 0.96 0.92 0.81 0.75 0.76 0.70 0.64 0.70 0.79 0.81 0.83 0.84 0.81 0.84 0.87 0.93 1.03 1.12 1.19 1.12 1.04 1.04 1.11 1.17 1.09 0.92 0.88 0.79 0.76 0.78 0.76 0.86 1.11 1.36 1.55 1.65
1.33 1.27 1.17 1.09 0.97 0.88 0.88 0.90 0.90 0.96 0.93 0.92 0.96 1.01 0.99 0.93 0.90 0.94 1.07 1.11 1.06 1.00 0.98 1.02 1.09 1.21 1.19 1.05 0.95 0.86 0.85 0.80 0.73 0.77 0.92 1.08 1.30 1.55
1.25 1.21 1.18 1.12 1.04 1.04 1.07 1.09 1.07 1.08 1.05 1.05 1.07 1.10 1.11 1.03 0.95 0.95 1.05 1.10 1.04 0.98 0.95 0.98 1.13 1.28 1.29 1.16 0.86 0.75 0.75 0.75 0.76 0.87 0.96 0.93 0.96 1.06
1.22 1.22 1.20 1.18 1.12 1.10 1.11 1.12 1.09 1.09 1.13 1.14 1.15 1.16 1.20 1.20 1.16 1.10 1.08 1.12 1.10 1.07 1.01 1.02 1.10 1.16 1.08 0.92 0.80 0.63 0.65 0.70 0.80 0.89 0.97 0.89 0.80 0.84
1.16 1.20 1.18 1.16 1.14 1.11 1.08 1.10 1.11 1.14 1.14 1.13 1.16 1.19 1.25 1.26 1.27 1.19 1.12 1.09 1.11 1.13 1.12 1.07 1.00 0.96 0.93 0.86 0.81 0.77 0.68 0.76 0.84 0.86 0.89 0.91 0.87 0.84
1.10 1.08 1.04 0.99 0.98 0.99 0.99 0.98 0.98 0.99 1.01 1.08 1.08 1.09 1.14 1.14 1.10 1.07 1.08 1.08 1.08 1.15 1.07 0.90 0.86 0.93 1.09 1.21 1.03 0.78 0.74 0.75 0.86 0.95 1.01 1.07 1.04 0.99
1.02 0.96 0.94 0.89 0.89 0.91 0.93 0.91 0.91 0.93 0.98 1.07 1.08 1.06 1.08 1.06 1.01 1.01 1.06 1.09 1.07 1.06 1.08 1.05 1.13 1.21 1.23 1.18 1.00 0.85 0.86 0.95 0.99 1.02 1.02 0.97 0.93 0.85
0.93 0.90 0.88 0.83 0.81 0.82 0.83 0.85 0.89 0.95 0.98 1.04 1.08 1.10 1.12 1.09 1.03 1.03 1.07 1.12 1.13 1.15 1.27 1.31 1.26 1.22 1.16 1.15 1.12 1.05 1.03 1.11 1.21 1.22 1.14 0.97 0.72 0.57

GEFSNE_prec_meanprecacc_168.txt.gz
Total_Precipitation_Accumulation
1.04 1.18 1.24 1.22 1.26 1.35 1.46 1.53 1.58 1.51 1.46 1.37 1.13 1.06 1.04 1.02 1.07 0.99 1.02 0.85 0.58 0.50 0.49 0.49 0.48 0.52 0.63 0.81 0.99 1.15 1.37 1.54 1.66 1.77 1.84 1.95 2.06 2.19
1.22 1.35 1.33 1.26 1.28 1.35 1.47 1.63 1.74 1.73 1.53 1.24 1.13 1.15 1.19 1.10 1.08 0.92 0.89 0.89 0.70 0.56 0.50 0.48 0.47 0.48 0.52 0.65 0.79 0.93 1.08 1.20 1.34 1.46 1.53 1.57 1.62 1.76
1.20 1.28 1.35 1.34 1.36 1.38 1.48 1.55 1.71 1.87 1.70 1.38 1.32 1.37 1.43 1.40 1.25 1.06 0.88 0.84 0.75 0.66 0.54 0.49 0.48 0.51 0.57 0.62 0.72 0.82 0.89 0.96 1.09 1.22 1.33 1.41 1.46 1.52
1.29 1.31 1.25 1.29 1.40 1.39 1.46 1.47 1.57 1.78 1.71 1.58 1.55 1.56 1.60 1.54 1.47 1.26 1.00 0.88 0.83 0.73 0.56 0.50 0.48 0.47 0.49 0.49 0.57 0.70 0.81 0.87 0.91 0.94 1.00 1.12 1.26 1.36
1.29 1.28 1.24 1.29 1.30 1.38 1.45 1.39 1.38 1.48 1.62 1.65 1.67 1.74 1.77 1.66 1.53 1.37 1.22 1.14 0.91 0.80 0.69 0.56 0.52 0.50 0.50 0.49 0.51 0.57 0.69 0.81 0.89 0.93 0.96 1.01 1.07 1.15
1.25 1.19 1.18 1.21 1.22 1.27 1.33 1.35 1.37 1.47 1.58 1.63 1.72 1.90 1.91 1.92 1.84 1.60 1.48 1.41 1.14 0.86 0.82 0.72 0.65 0.58 0.52 0.47 0.46 0.51 0.60 0.74 0.90 0.98 1.04 1.12 1.18 1.18
1.37 1.25 1.15 1.12 1.15 1.18 1.13 1.18 1.29 1.39 1.40 1.45 1.53 1.74 1.84 1.96 1.91 1.70 1.55 1.54 1.38 1.06 0.92 0.82 0.78 0.72 0.69 0.64 0.55 0.52 0.59 0.71 0.88 1.02 1.09 1.19 1.30 1.35
1.46 1.39 1.24 1.12 1.09 1.03 0.94 0.96 1.03 1.08 1.16 1.30 1.33 1.50 1.68 1.79 1.92 1.98 1.82 1.67 1.60 1.39 1.32 1.19 1.04 1.01 0.89 0.77 0.69 0.55 0.50 0.56 0.67 0.81 0.95 1.09 1.21 1.36
1.42 1.42 1.21 1.07 1.10 0.99 0.95 0.89 0.84 0.88 0.95 1.13 1.23 1.27 1.49 1.68 1.89 2.05 2.05 1.98 1.84 1.73 1.70 1.61 1.35 1.18 1.01 0.89 0.81 0.63 0.51 0.46 0.49 0.57 0.66 0.80 0.92 1.04
1.26 1.30 1.27 1.17 1.16 1.18 1.10 0.98 0.86 0.85 0.90 0.93 0.98 1.13 1.40 1.76 1.95 1.99 2.12 2.14 2.06 1.94 1.89 1.84 1.61 1.42 1.23 1.10 1.00 0.77 0.62 0.54 0.50 0.50 0.53 0.58 0.70 0.81
1.18 1.20 1.21 1.15 1.18 1.10 1.04 1.01 0.99 0.98 0.92 0.92 0.93 1.01 1.17 1.40 1.75 1.87 1.91 1.86 1.77 1.57 1.46 1.50 1.47 1.44 1.38 1.26 1.11 0.97 0.80 0.67 0.61 0.61 0.59 0.59 0.64 0.74
1.19 1.18 1.10 1.01 0.96 0.90 0.89 0.98 0.94 0.94 1.01 0.98 0.93 0.88 0.87 1.01 1.30 1.50 1.57 1.58 1.45 1.39 1.15 1.12 1.12 1.19 1.29 1.20 1.08 1.02 0.95 0.93 0.85 0.73 0.67 0.64 0.73 0.70
1.20 1.19 1.10 0.99 0.84 0.80 0.81 0.87 0.90 0.90 0.99 1.02 0.98 0.96 0.97 0.99 1.07 1.22 1.41 1.48 1.40 1.20 1.07 1.06 1.04 1.04 1.05 1.01 0.97 0.93 0.95 1.00 0.97 0.93 0.87 0.86 0.90 0.88
1.22 1.19 1.18 1.02 0.84 0.79 0.75 0.75 0.78 0.75 0.79 0.90 0.89 0.85 0.86 0.87 0.91 1.05 1.24 1.36 1.42 1.25 1.13 1.16 1.14 1.05 1.00 0.89 0.83 0.78 0.80 0.92 1.06 1.16 1.12 1.12 1.10 1.16
1.13 1.16 1.11 0.99 0.83 0.72 0.73 0.73 0.67 0.65 0.73 0.81 0.82 0.74 0.71 0.75 0.86 1.00 1.15 1.28 1.32 1.25 1.13 1.13 1.15 1.11 1.07 0.93 0.78 0.72 0.75 0.80 0.90 1.08 1.26 1.33 1.29 1.29
1.14 1.11 1.01 0.96 0.84 0.77 0.78 0.72 0.65 0.72 0.79 0.81 0.84 0.85 0.82 0.84 0.88 0.94 1.04 1.14 1.20 1.14 1.06 1.05 1.12 1.18 1.10 0.93 0.89 0.80 0.76 0.79 0.76 0.87 1.12 1.37 1.57 1.66
1.39 1.33 1.22 1.12 0.99 0.90 0.89 0.91 0.91 0.97 0.94 0.92 0.97 1.01 0.99 0.93 0.91 0.95 1.08 1.12 1.07 1.00 0.99 1.03 1.10 1.22 1.20 1.06 0.96 0.87 0.86 0.81 0.74 0.78 0.93 1.10 1.32 1.57
1.30 1.25 1.21 1.14 1.05 1.05 1.08 1.09 1.08 1.08 1.05 1.06 1.07 1.11 1.11 1.03 0.95 0.95 1.05 1.11 1.05 0.98 0.96 0.98 1.13 1.29 1.30 1.17 0.87 0.76 0.76 0.76 0.77 0.88 0.97 0.95 0.99 1.09
1.25 1.25 1.21 1.19 1.12 1.10 1.12 1.12 1.09 1.09 1.13 1.15 1.15 1.16 1.21 1.21 1.17 1.10 1.08 1.13 1.11 1.07 1.02 1.03 1.11 1.16 1.09 0.93 0.81 0.64 0.65 0.70 0.80 0.90 0.98 0.91 0.83 0.87
1.18 1.21 1.19 1.17 1.14 1.11 1.08 1.10 1.11 1.14 1.14 1.13 1.16 1.19 1.25 1.26 1.27 1.19 1.12 1.09 1.11 1.14 1.13 1.07 1.01 0.97 0.94 0.87 0.82 0.78 0.69 0.76 0.85 0.87 0.91 0.93 0.89 0.85
1.11 1.09 1.05 1.00 0.98 0.99 0.99 0.98 0.98 0.99 1.01 1.08 1.08 1.09 1.15 1.14 1.10 1.07 1.08 1.08 1.09 1.15 1.07 0.91 0.86 0.94 1.09 1.21 1.03 0.79 0.75 0.76 0.87 0.95 1.01 1.09 1.06 1.01
1.02 0.97 0.95 0.90 0.90 0.91 0.93 0.91 0.91 0.93 0.98 1.07 1.08 1.06 1.08 1.06 1.01 1.01 1.06 1.09 1.07 1.07 1.08 1.05 1.14 1.21 1.23 1.19 1.01 0.86 0.87 0.95 1.00 1.02 1.03 0.99 0.96 0.89
0.94 0.90 0.88 0.84 0.82 0.82 0.83 0.85 0.89 0.95 0.98 1.04 1.08 1.10 1.12 1.09 1.03 1.03 1.07 1.12 1.13 1.15 1.27 1.31 1.26 1.22 1.16 1.15 1.13 1.05 1.04 1.13 1.23 1.24 1.16 0.98 0.74 0.60

GEFSNE_prec_meanprecacc_174.txt.gz
Total_Precipitation_Accumulation
1.10 1.23 1.28 1.24 1.28 1.38 1.50 1.57 1.61 1.53 1.47 1.37 1.14 1.06 1.06 1.04 1.09 1.01 1.04 0.87 0.61 0.53 0.52 0.53 0.52 0.55 0.67 0.85 1.02 1.18 1.40 1.57 1.69 1.80 1.88 2.00 2.13 2.25
1.26 1.39 1.36 1.29 1.32 1.38 1.51 1.68 1.79 1.77 1.55 1.26 1.15 1.17 1.21 1.13 1.11 0.95 0.91 0.92 0.74 0.61 0.54 0.53 0.52 0.53 0.57 0.70 0.84 0.97 1.12 1.23 1.36 1.48 1.55 1.61 1.67 1.82
1.24 1.32 1.38 1.39 1.41 1.44 1.53 1.61 1.77 1.93 1.76 1.42 1.35 1.40 1.46 1.43 1.29 1.10 0.93 0.89 0.79 0.70 0.59 0.54 0.53 0.56 0.62 0.67 0.78 0.88 0.94 1.00 1.12 1.25 1.36 1.45 1.50 1.56
1.33 1.36 1.30 1.35 1.47 1.46 1.54 1.55 1.64 1.85 1.78 1.62 1.58 1.61 1.65 1.60 1.53 1.31 1.05 0.93 0.88 0.78 0.61 0.54 0.53 0.52 0.54 0.55 0.63 0.76 0.88 0.94 0.97 0.99 1.06 1.18 1.32 1.43
1.34 1.34 1.30 1.37 1.39 1.47 1.53 1.47 1.46 1.56 1.69 1.71 1.72 1.80 1.84 1.72 1.59 1.43 1.28 1.20 0.97 0.86 0.74 0.62 0.58 0.56 0.56 0.56 0.59 0.67 0.79 0.91 1.00 1.06 1.07 1.11 1.15 1.22
1.33 1.27 1.27 1.29 1.30 1.35 1.40 1.43 1.47 1.57 1.68 1.72 1.80 1.98 2.00 2.03 1.93 1.67 1.54 1.47 1.21 0.92 0.88 0.78 0.71 0.65 0.59 0.54 0.55 0.61 0.70 0.85 1.01 1.10 1.15 1.21 1.25 1.25
1.47 1.37 1.28 1.25 1.27 1.28 1.23 1.28 1.42 1.54 1.54 1.58 1.65 1.84 1.93 2.05 2.00 1.77 1.61 1.61 1.46 1.14 1.00 0.90 0.86 0.80 0.77 0.73 0.64 0.60 0.66 0.78 0.96 1.09 1.16 1.25 1.35 1.40
1.59 1.52 1.38 1.26 1.22 1.16 1.07 1.09 1.16 1.22 1.33 1.45 1.46 1.60 1.78 1.88 2.01 2.07 1.92 1.78 1.69 1.48 1.40 1.28 1.11 1.07 0.95 0.84 0.77 0.63 0.58 0.64 0.74 0.87 1.01 1.15 1.27 1.43
1.52 1.51 1.31 1.19 1.25 1.16 1.15 1.08 1.03 1.07 1.13 1.30 1.38 1.41 1.62 1.81 2.02 2.18 2.18 2.09 1.94 1.81 1.78 1.69 1.41 1.23 1.07 0.95 0.87 0.69 0.57 0.52 0.54 0.61 0.70 0.85 0.97 1.09
1.33 1.37 1.34 1.26 1.26 1.30 1.25 1.15 1.04 1.03 1.07 1.07 1.10 1.24 1.51 1.88 2.09 2.12 2.22 2.22 2.12 2.00 1.94 1.89 1.67 1.47 1.28 1.14 1.04 0.80 0.66 0.57 0.54 0.53 0.55 0.61 0.73 0.85
1.21 1.24 1.24 1.19 1.23 1.17 1.13 1.09 1.07 1.06 0.99 0.98 0.98 1.06 1.21 1.44 1.80 1.92 1.97 1.93 1.84 1.63 1.51 1.56 1.53 1.51 1.45 1.32 1.16 1.01 0.84 0.71 0.65 0.64 0.62 0.61 0.67 0.76
1.23 1.21 1.14 1.04 1.00 0.95 0.95 1.03 0.99 0.96 1.03 1.01 0.94 0.90 0.88 1.03 1.33 1.53 1.61 1.63 1.53 1.48 1.24 1.21 1.22 1.28 1.40 1.29 1.15 1.08 1.01 0.98 0.88 0.76 0.68 0.66 0.74 0.72
1.24 1.24 1.15 1.05 0.89 0.84 0.84 0.90 0.93 0.93 1.01 1.04 1.00 0.98 0.99 1.01 1.09 1.25 1.45 1.54 1.47 1.28 1.15 1.15 1.14 1.15 1.17 1.13 1.07 1.00 1.00 1.04 1.01 0.95 0.89 0.88 0.91 0.89
1.26 1.24 1.24 1.08 0.90 0.85 0.81 0.80 0.82 0.79 0.82 0.92 0.91 0.87 0.88 0.88 0.92 1.07 1.27 1.40 1.48 1.32 1.20 1.24 1.22 1.14 1.09 0.97 0.89 0.83 0.84 0.96 1.09 1.18 1.14 1.13 1.11 1.18
1.20 1.23 1.17 1.05 0.88 0.77 0.79 0.77 0.71 0.69 0.76 0.84 0.85 0.78 0.74 0.79 0.89 1.03 1.17 1.30 1.36 1.30 1.18 1.19 1.21 1.17 1.12 0.99 0.82 0.75 0.77 0.83 0.92 1.10 1.27 1.34 1.30 1.30
1.22 1.19 1.08 1.02 0.89 0.81 0.82 0.75 0.68 0.74 0.82 0.83 0.86 0.86 0.84 0.86 0.90 0.96 1.06 1.16 1.22 1.16 1.08 1.08 1.15 1.22 1.13 0.97 0.92 0.82 0.78 0.80 0.78 0.88 1.13 1.39 1.58 1.68
1.44 1.37 1.26 1.16 1.02 0.93 0.91 0.92 0.92 0.98 0.95 0.94 0.98 1.03 1.01 0.95 0.92 0.96 1.09 1.13 1.08 1.01 0.99 1.04 1.11 1.23 1.22 1.07 0.98 0.89 0.88 0.82 0.75 0.79 0.94 1.11 1.33 1.58
1.33 1.27 1.23 1.15 1.07 1.06 1.09 1.10 1.09 1.09 1.06 1.07 1.08 1.12 1.12 1.04 0.96 0.96 1.06 1.12 1.06 0.99 0.96 0.99 1.14 1.29 1.30 1.17 0.88 0.77 0.78 0.77 0.78 0.89 0.98 0.96 1.00 1.10
1.26 1.27 1.24 1.21 1.14 1.11 1.13 1.13 1.10 1.10 1.14 1.15 1.15 1.16 1.21 1.21 1.17 1.11 1.08 1.13 1.12 1.08 1.03 1.04 1.12 1.17 1.10 0.95 0.83 0.66 0.67 0.72 0.82 0.91 0.99 0.92 0.84 0.89
1.19 1.23 1.21 1.19 1.16 1.13 1.09 1.10 1.11 1.14 1.14 1.13 1.16 1.19 1.25 1.26 1.27 1.20 1.12 1.09 1.11 1.14 1.13 1.08 1.01 0.97 0.95 0.88 0.84 0.79 0.70 0.78 0.86 0.88 0.91 0.94 0.90 0.87
1.12 1.11 1.07 1.02 1.00 1.00 1.00 0.98 0.98 0.99 1.01 1.08 1.08 1.09 1.15 1.14 1.10 1.07 1.08 1.08 1.09 1.15 1.07 0.91 0.87 0.94 1.10 1.22 1.04 0.80 0.76 0.77 0.88 0.96 1.02 1.10 1.07 1.02
1.03 0.97 0.96 0.93 0.93 0.94 0.94 0.92 0.91 0.93 0.98 1.07 1.08 1.06 1.08 1.06 1.01 1.01 1.06 1.09 1.07 1.07 1.08 1.05 1.14 1.21 1.24 1.19 1.02 0.87 0.88 0.96 1.00 1.03 1.04 1.00 0.98 0.92
0.94 0.91 0.89 0.85 0.83 0.83 0.84 0.86 0.89 0.95 0.98 1.04 1.08 1.10 1.12 1.09 1.03 1.03 1.07 1.12 1.13 1.15 1.27 1.32 1.27 1.22 1.16 1.16 1.13 1.06 1.04 1.13 1.24 1.24 1.16 0.99 0.75 0.61

GEFSNE_prec_meanprecacc_180.txt.gz
Total_Precipitation_Accumulation
1.18 1.32 1.36 1.32 1.36 1.45 1.58 1.65 1.70 1.61 1.53 1.41 1.17 1.08 1.07 1.05 1.11 1.04 1.07 0.91 0.64 0.56 0.55 0.56 0.56 0.60 0.71 0.89 1.06 1.22 1.45 1.61 1.73 1.84 1.92 2.05 2.18 2.31
1.34 1.47 1.44 1.38 1.41 1.47 1.60 1.77 1.90 1.87 1.63 1.30 1.19 1.20 1.25 1.16 1.14 0.97 0.94 0.96 0.77 0.64 0.57 0.56 0.55 0.57 0.61 0.74 0.88 1.00 1.15 1.28 1.41 1.53 1.60 1.65 1.71 1.85
1.32 1.40 1.46 1.48 1.51 1.53 1.62 1.68 1.86 2.03 1.84 1.47 1.40 1.44 1.52 1.48 1.34 1.15 0.98 0.93 0.83 0.74 0.63 0.58 0.56 0.58 0.65 0.70 0.82 0.92 0.98 1.05 1.17 1.30 1.42 1.51 1.55 1.60
1.41 1.44 1.38 1.46 1.57 1.56 1.65 1.65 1.73 1.95 1.87 1.69 1.63 1.66 1.72 1.67 1.62 1.40 1.12 0.99 0.94 0.85 0.68 0.60 0.59 0.57 0.59 0.59 0.67 0.80 0.92 0.98 1.02 1.05 1.12 1.25 1.40 1.51
1.42 1.41 1.37 1.47 1.50 1.58 1.66 1.60 1.59 1.69 1.83 1.81 1.78 1.86 1.91 1.79 1.68 1.52 1.36 1.29 1.06 0.94 0.82 0.69 0.64 0.62 0.62 0.61 0.64 0.73 0.86 0.99 1.10 1.16 1.19 1.24 1.28 1.34
1.46 1.40 1.39 1.41 1.42 1.47 1.53 1.55 1.61 1.72 1.83 1.88 1.94 2.10 2.12 2.14 2.05 1.79 1.65 1.58 1.30 1.00 0.96 0.85 0.77 0.71 0.66 0.61 0.62 0.69 0.78 0.94 1.09 1.18 1.24 1.31 1.36 1.35
1.59 1.49 1.40 1.38 1.40 1.43 1.36 1.43 1.57 1.69 1.68 1.73 1.81 2.01 2.09 2.19 2.15 1.94 1.78 1.77 1.63 1.29 1.15 1.03 0.98 0.90 0.87 0.83 0.73 0.68 0.73 0.84 1.02 1.16 1.22 1.32 1.43 1.48
1.70 1.64 1.49 1.37 1.32 1.27 1.17 1.20 1.29 1.37 1.50 1.66 1.68 1.83 2.00 2.10 2.23 2.29 2.14 1.99 1.90 1.66 1.57 1.42 1.24 1.18 1.03 0.90 0.83 0.68 0.62 0.68 0.77 0.91 1.04 1.18 1.30 1.47
1.58 1.58 1.36 1.24 1.30 1.21 1.22 1.18 1.16 1.23 1.31 1.49 1.61 1.66 1.86 2.04 2.24 2.40 2.40 2.31 2.15 2.00 1.93 1.81 1.51 1.31 1.12 0.99 0.91 0.71 0.60 0.54 0.56 0.64 0.73 0.87 0.99 1.12
1.38 1.42 1.39 1.31 1.31 1.35 1.29 1.20 1.12 1.15 1.22 1.22 1.25 1.39 1.63 1.98 2.18 2.23 2.35 2.33 2.22 2.10 2.05 2.00 1.75 1.55 1.35 1.20 1.09 0.85 0.70 0.61 0.57 0.56 0.59 0.64 0.76 0.88
1.27 1.30 1.30 1.24 1.28 1.21 1.16 1.14 1.13 1.13 1.08 1.05 1.05 1.12 1.28 1.51 1.86 1.98 2.04 2.00 1.90 1.68 1.57 1.63 1.59 1.56 1.50 1.37 1.21 1.06 0.88 0.75 0.68 0.67 0.65 0.65 0.70 0.80
1.30 1.27 1.20 1.10 1.07 1.01 0.99 1.09 1.05 1.02 1.08 1.05 0.99 0.95 0.95 1.10 1.40 1.59 1.65 1.67 1.57 1.52 1.27 1.25 1.26 1.32 1.45 1.34 1.20 1.13 1.06 1.03 0.94 0.81 0.74 0.70 0.78 0.76
1.32 1.32 1.23 1.14 0.97 0.91 0.91 0.95 0.98 0.98 1.06 1.10 1.07 1.05 1.07 1.07 1.13 1.28 1.47 1.57 1.51 1.31 1.18 1.18 1.17 1.19 1.22 1.19 1.14 1.08 1.09 1.13 1.10 1.04 0.98 0.95 0.98 0.94
1.35 1.33 1.33 1.18 0.98 0.92 0.88 0.87 0.89 0.84 0.87 0.98 0.96 0.91 0.90 0.91 0.95 1.09 1.29 1.42 1.50 1.35 1.23 1.26 1.26 1.18 1.15 1.05 0.98 0.93 0.94 1.06 1.20 1.29 1.25 1.23 1.20 1.25
1.28 1.32 1.26 1.13 0.95 0.82 0.83 0.81 0.75 0.72 0.80 0.88 0.88 0.80 0.76 0.80 0.91 1.05 1.20 1.33 1.39 1.33 1.21 1.21 1.24 1.21 1.18 1.06 0.91 0.84 0.85 0.90 1.00 1.18 1.36 1.43 1.39 1.38
1.27 1.24 1.12 1.06 0.92 0.84 0.84 0.77 0.70 0.76 0.83 0.85 0.88 0.87 0.84 0.87 0.91 0.97 1.07 1.18 1.25 1.19 1.11 1.10 1.17 1.24 1.17 1.01 0.98 0.88 0.83 0.85 0.83 0.93 1.19 1.45 1.65 1.74
1.46 1.40 1.28 1.18 1.04 0.94 0.93 0.94 0.94 0.99 0.97 0.95 0.99 1.04 1.01 0.95 0.93 0.96 1.09 1.13 1.09 1.02 1.01 1.05 1.12 1.25 1.24 1.10 1.01 0.92 0.91 0.85 0.79 0.82 0.98 1.15 1.38 1.62
1.35 1.29 1.24 1.17 1.08 1.07 1.10 1.12 1.10 1.11 1.08 1.08 1.10 1.13 1.13 1.05 0.96 0.96 1.06 1.12 1.06 1.00 0.97 1.00 1.15 1.31 1.32 1.19 0.89 0.78 0.79 0.79 0.80 0.91 1.00 0.99 1.04 1.15
1.28 1.28 1.25 1.22 1.15 1.13 1.15 1.15 1.12 1.12 1.15 1.16 1.16 1.17 1.22 1.21 1.17 1.11 1.09 1.14 1.12 1.08 1.03 1.04 1.13 1.19 1.12 0.97 0.85 0.67 0.68 0.74 0.84 0.92 1.00 0.95 0.87 0.92
1.19 1.24 1.21 1.19 1.17 1.14 1.10 1.11 1.12 1.14 1.14 1.13 1.16 1.19 1.26 1.27 1.28 1.20 1.12 1.10 1.12 1.14 1.13 1.08 1.02 0.98 0.96 0.90 0.85 0.80 0.71 0.79 0.87 0.90 0.94 0.97 0.93 0.88
1.12 1.11 1.07 1.02 1.00 1.01 1.00 0.99 0.98 0.99 1.02 1.08 1.09 1.09 1.15 1.14 1.11 1.08 1.08 1.08 1.09 1.15 1.07 0.91 0.87 0.94 1.10 1.24 1.06 0.82 0.78 0.78 0.89 0.97 1.04 1.11 1.09 1.04
1.03 0.98 0.97 0.94 0.94 0.94 0.95 0.93 0.92 0.94 0.99 1.08 1.08 1.07 1.08 1.06 1.01 1.01 1.06 1.09 1.07 1.07 1.08 1.06 1.14 1.21 1.24 1.21 1.03 0.88 0.90 0.98 1.01 1.03 1.04 1.00 0.99 0.93
0.94 0.91 0.89 0.85 0.84 0.84 0.85 0.87 0.90 0.96 0.99 1.04 1.08 1.10 1.12 1.09 1.03 1.03 1.07 1.12 1.13 1.15 1.28 1.32 1.27 1.23 1.16 1.16 1.14 1.07 1.05 1.15 1.25 1.26 1.18 0.99 0.76 0.62

GEFSNE_prec_meanprecacc_186.txt.gz
Total_Precipitation_Accumulation
1.28 1.45 1.47 1.40 1.44 1.51 1.66 1.76 1.85 1.75 1.65 1.51 1.25 1.16 1.18 1.16 1.24 1.13 1.15 1.01 0.73 0.62 0.60 0.60 0.58 0.62 0.73 0.92 1.09 1.25 1.48 1.66 1.77 1.89 1.97 2.10 2.23 2.36
1.50 1.62 1.57 1.49 1.52 1.56 1.71 1.89 2.05 2.01 1.75 1.38 1.27 1.27 1.33 1.25 1.30 1.09 1.06 1.12 0.91 0.71 0.63 0.61 0.60 0.62 0.66 0.78 0.91 1.03 1.18 1.31 1.44 1.56 1.64 1.69 1.75 1.89
1.45 1.56 1.62 1.64 1.65 1.67 1.81 1.87 2.01 2.20 1.99 1.58 1.48 1.53 1.64 1.61 1.49 1.28 1.11 1.05 0.93 0.85 0.70 0.64 0.62 0.64 0.69 0.74 0.85 0.95 1.01 1.07 1.20 1.33 1.45 1.54 1.59 1.65
1.52 1.59 1.52 1.62 1.76 1.74 1.85 1.84 1.88 2.11 2.05 1.85 1.77 1.78 1.85 1.80 1.76 1.54 1.21 1.07 1.01 0.94 0.76 0.67 0.65 0.64 0.65 0.65 0.72 0.85 0.96 1.02 1.06 1.09 1.16 1.30 1.46 1.58
1.54 1.53 1.51 1.64 1.68 1.75 1.84 1.77 1.73 1.84 2.00 1.99 1.96 2.05 2.08 1.95 1.85 1.67 1.47 1.39 1.13 1.03 0.92 0.81 0.76 0.73 0.71 0.70 0.72 0.80 0.92 1.05 1.16 1.23 1.27 1.32 1.37 1.43
1.56 1.52 1.53 1.56 1.57 1.61 1.67 1.69 1.74 1.86 1.99 2.04 2.10 2.27 2.28 2.31 2.24 1.97 1.82 1.76 1.47 1.14 1.10 1.01 0.94 0.86 0.79 0.72 0.72 0.77 0.86 1.02 1.18 1.26 1.30 1.37 1.42 1.41
1.69 1.59 1.50 1.48 1.50 1.51 1.45 1.52 1.67 1.80 1.80 1.85 1.93 2.14 2.25 2.37 2.33 2.12 1.98 1.96 1.80 1.44 1.32 1.22 1.17 1.07 1.01 0.95 0.84 0.77 0.81 0.92 1.08 1.21 1.27 1.36 1.46 1.51
1.78 1.72 1.56 1.42 1.37 1.31 1.21 1.23 1.32 1.41 1.56 1.74 1.78 1.96 2.15 2.28 2.41 2.47 2.32 2.15 2.04 1.81 1.71 1.57 1.35 1.28 1.14 1.01 0.94 0.77 0.69 0.74 0.82 0.95 1.07 1.21 1.33 1.49
1.65 1.64 1.42 1.28 1.34 1.25 1.24 1.20 1.18 1.25 1.33 1.53 1.68 1.74 1.97 2.16 2.37 2.53 2.53 2.44 2.28 2.13 2.03 1.88 1.57 1.39 1.20 1.08 0.99 0.78 0.65 0.59 0.61 0.68 0.77 0.90 1.02 1.14
1.46 1.49 1.45 1.37 1.36 1.40 1.34 1.24 1.15 1.19 1.26 1.26 1.30 1.45 1.70 2.06 2.27 2.31 2.43 2.42 2.31 2.18 2.13 2.08 1.83 1.63 1.43 1.28 1.17 0.90 0.74 0.64 0.60 0.59 0.61 0.67 0.78 0.90
1.36 1.37 1.38 1.31 1.35 1.26 1.20 1.19 1.19 1.21 1.16 1.11 1.10 1.17 1.33 1.56 1.92 2.06 2.13 2.08 1.97 1.75 1.65 1.71 1.68 1.63 1.57 1.44 1.27 1.10 0.91 0.77 0.70 0.69 0.67 0.67 0.72 0.81
1.37 1.35 1.29 1.17 1.13 1.07 1.06 1.17 1.14 1.11 1.15 1.11 1.05 1.01 1.00 1.15 1.44 1.63 1.69 1.72 1.62 1.58 1.34 1.31 1.32 1.37 1.49 1.38 1.24 1.17 1.09 1.07 0.97 0.84 0.76 0.73 0.81 0.79
1.39 1.38 1.30 1.21 1.03 0.99 0.99 1.03 1.05 1.03 1.11 1.16 1.13 1.10 1.11 1.11 1.15 1.30 1.50 1.60 1.55 1.35 1.21 1.22 1.21 1.23 1.26 1.24 1.19 1.12 1.14 1.18 1.16 1.11 1.04 1.02 1.04 1.01
1.39 1.37 1.38 1.24 1.04 0.98 0.92 0.91 0.92 0.87 0.91 1.02 1.00 0.94 0.94 0.94 0.97 1.12 1.31 1.44 1.52 1.37 1.24 1.27 1.27 1.20 1.18 1.08 1.02 0.96 0.97 1.11 1.25 1.36 1.31 1.32 1.30 1.37
1.31 1.35 1.30 1.16 0.97 0.84 0.84 0.82 0.76 0.74 0.82 0.91 0.92 0.83 0.79 0.83 0.92 1.07 1.22 1.35 1.40 1.34 1.21 1.22 1.25 1.22 1.19 1.09 0.95 0.88 0.89 0.95 1.05 1.24 1.43 1.51 1.49 1.49
1.29 1.25 1.14 1.07 0.94 0.85 0.85 0.78 0.71 0.77 0.85 0.87 0.90 0.90 0.86 0.88 0.92 0.99 1.09 1.20 1.27 1.21 1.12 1.12 1.19 1.26 1.18 1.03 1.00 0.91 0.87 0.89 0.87 0.98 1.26 1.54 1.75 1.84
1.47 1.41 1.29 1.19 1.05 0.95 0.93 0.95 0.96 1.01 0.99 0.97 1.01 1.06 1.03 0.97 0.94 0.97 1.10 1.14 1.10 1.04 1.03 1.06 1.13 1.26 1.25 1.11 1.02 0.94 0.94 0.89 0.82 0.86 1.02 1.20 1.44 1.70
1.36 1.30 1.25 1.18 1.09 1.08 1.12 1.14 1.12 1.13 1.09 1.10 1.11 1.14 1.14 1.06 0.98 0.97 1.07 1.13 1.07 1.01 0.98 1.01 1.16 1.32 1.34 1.21 0.90 0.80 0.81 0.82 0.83 0.94 1.03 1.02 1.08 1.19
1.29 1.29 1.26 1.23 1.16 1.14 1.16 1.16 1.13 1.12 1.16 1.17 1.17 1.18 1.22 1.22 1.18 1.12 1.10 1.15 1.13 1.10 1.04 1.06 1.14 1.20 1.14 1.00 0.87 0.68 0.70 0.75 0.85 0.94 1.02 0.96 0.89 0.94
1.20 1.25 1.23 1.21 1.18 1.15 1.11 1.12 1.12 1.15 1.15 1.14 1.17 1.20 1.26 1.27 1.28 1.21 1.13 1.11 1.13 1.16 1.14 1.09 1.03 0.99 0.98 0.92 0.87 0.81 0.71 0.79 0.88 0.92 0.95 0.98 0.94 0.90
1.13 1.12 1.08 1.04 1.01 1.01 1.01 1.00 0.99 1.01 1.03 1.09 1.10 1.10 1.16 1.15 1.11 1.08 1.09 1.08 1.09 1.16 1.08 0.92 0.88 0.95 1.11 1.24 1.08 0.84 0.79 0.78 0.89 0.97 1.04 1.12 1.10 1.06
1.04 0.99 0.99 0.96 0.95 0.94 0.95 0.93 0.93 0.95 1.00 1.09 1.10 1.08 1.10 1.08 1.02 1.02 1.07 1.10 1.07 1.08 1.09 1.06 1.15 1.22 1.25 1.22 1.05 0.90 0.92 0.99 1.02 1.04 1.05 1.01 1.00 0.95
0.95 0.91 0.90 0.86 0.84 0.84 0.85 0.87 0.91 0.96 1.00 1.05 1.10 1.12 1.14 1.11 1.05 1.05 1.09 1.13 1.14 1.15 1.28 1.33 1.28 1.23 1.17 1.17 1.15 1.08 1.06 1.16 1.27 1.28 1.19 1.00 0.76 0.62